Simultaneous Nadir Overpasses (SNOs) Predictions

Prediction of SNOs between GOES-16 and AQUA Satellite Orbit:

Table of predicted SNOs for the next 14.0 days since TLE Epoch: 1/4/2019
Index Date Time (GOES-16) GOES-16 Lat,Lon AQUA Lat,Lon Distance(km) Time Diff (sec)
1 01/05/2019 06:17:22 0.01, -75.19 -0.89, -70.90 487.80 80
2 01/05/2019 18:41:25 -0.02, -75.20 -0.23, -76.09 101.89 80
3 01/07/2019 18:26:34 -0.01, -75.20 0.41, -73.13 234.92 80
4 01/08/2019 06:50:30 0.01, -75.20 0.66, -78.30 351.52 80
5 01/10/2019 06:38:19 0.00, -75.22 0.02, -75.34 13.96 80
6 01/12/2019 06:23:28 -0.00, -75.24 -0.62, -72.39 324.31 80
7 01/12/2019 18:47:32 -0.00, -75.25 -0.51, -77.57 264.90 80
8 01/14/2019 18:32:41 0.00, -75.27 0.13, -74.62 74.03 80
9 01/16/2019 18:20:30 -0.00, -75.30 0.78, -71.66 413.26 80
10 01/17/2019 06:44:25 0.01, -75.30 0.34, -76.81 172.40 80




NCC Satellite Simultaneous Nadir Overpasses (SNOs) Prediction Service
